Tracking 29591 objects as of 19-Sep-2024
HD Live streaming from Space Station
objects crossing your sky now

THOR ABLESTAR DEB

Track THOR ABLESTAR DEB now!
10-day predictions


NORAD ID: 5745
Int'l Code: 1961-015JU
Perigee: 715.6 km
Apogee: 834.2 km
Inclination: 67.1 °
Period: 100.2 minutes
Semi major axis: 7145 km
RCS: 0.0107 m2 (small)
Launch date: June 29, 1961
Source: United States (US)
Launch site: AIR FORCE EASTERN TEST RANGE (AFETR)

Note: This is SATELLITE DEBRIS
Your satellite tracking list
Your tracking list is empty




NASA's NSSDC Master Catalog

Two Line Element Set (TLE):
1  5745U 61015JU  24263.14998844  .00023900  00000-0  77063-2 0  9997
2  5745  67.0708  13.5920 0082998 210.4399 149.1874 14.37193260174771
Source of the keplerian elements: AFSPC